This demonstration page uses our WeatherBlox Daily Observations layout. Learn more.

Left ArrowRight Arrow

40.92945, -100.16068

Hourly Observations for June 12, 2022

Temp ( °F °C ) Dew Point ( °F °C ) Humidity (%) Winds ( mph kmh ) Pressure ( in mb ) Visibility ( mi km ) Precip ( " mm )
12:15 am 00:15 Clear 69 20.7 63 17.2 80 80 E 5 7 29.64 1004 10 16 0.00 0.00
12:35 am 00:35 Clear 70 21.2 63 17 77 77 ESE 5 7 29.64 1004 10 16 0.00 0.00
12:55 am 00:55 Partly Cloudy with Light Rain 70 21.1 64 17.9 82 82 S 8 13 29.65 1004 10 16 0.00 0.00
1:15 am 01:15 Clear 69 20.5 64 18 86 86 ESE 3 6 29.65 1004 10 16 0.00 0.00
1:35 am 01:35 Clear 70 20.9 65 18.1 84 84 SE 3 6 29.64 1004 10 16 0.00 0.00
1:55 am 01:55 Clear 70 21 65 18.2 84 84 SE 6 9 29.61 1003 10 16 0.00 0.00
2:15 am 02:15 Clear 71 21.6 64 18 80 80 SE 8 13 29.59 1002 10 16 0.00 0.00
2:35 am 02:35 Clear 71 21.6 64 18 80 80 ESE 6 9 29.60 1002 10 16 0.00 0.00
2:55 am 02:55 Clear 69 20.7 64 17.8 84 84 E 3 6 29.62 1003 10 16 0.00 0.00
3:15 am 03:15 Clear 67 19.6 64 17.7 89 89 ENE 3 6 29.63 1003 10 16 0.00 0.00
3:35 am 03:35 Clear 67 19.6 64 17.6 88 88 E 3 6 29.62 1003 10 16 0.00 0.00
3:55 am 03:55 Clear 66 18.8 64 17.6 93 93 NNE 3 6 29.61 1003 10 16 0.00 0.00
4:15 am 04:15 Clear 65 18.6 64 17.5 93 93 E 3 6 29.62 1003 10 16 0.00 0.00
4:35 am 04:35 Partly Cloudy 67 19.5 64 18 91 91 NNE 6 9 29.63 1003 10 16 0.00 0.00
4:55 am 04:55 Partly Cloudy 67 19.6 65 18.2 92 92 Calm 29.63 1003 10 16 0.00 0.00
5:15 am 05:15 Clear 67 19.4 65 18.3 93 93 N 7 11 29.62 1003 10 16 0.00 0.00
5:35 am 05:35 Clear 66 19.1 64 18 93 93 Calm 29.62 1003 7 11 0.00 0.00
5:55 am 05:55 Clear with Light Rain 68 20 66 18.9 93 93 ENE 16 26 29.62 1003 7 11 0.01 0.25
6:15 am 06:15 Partly Cloudy 70 21.2 67 19.5 90 90 ENE 16 26 29.64 1004 10 16 0.00 0.00
6:35 am 06:35 Sunny 70 21.3 67 19.5 90 90 ENE 18 30 29.63 1003 10 16 0.00 0.00
6:55 am 06:55 Sunny 70 21.3 67 19.5 90 90 E 14 22 29.63 1003 10 16 0.00 0.00
7:15 am 07:15 Sunny 71 21.5 67 19.6 89 89 ENE 13 20 29.63 1003 10 16 0.00 0.00
7:35 am 07:35 Sunny 71 21.6 67 19.5 88 88 E 13 20 29.62 1003 10 16 0.00 0.00
7:55 am 07:55 Sunny 71 21.6 67 19.3 87 87 E 9 15 29.63 1003 10 16 0.00 0.00
8:15 am 08:15 Sunny 72 22.1 67 19.4 85 85 E 10 17 29.64 1004 10 16 0.00 0.00
8:35 am 08:35 Sunny 73 22.9 67 19.7 82 82 E 12 19 29.64 1004 10 16 0.00 0.00
8:55 am 08:55 Sunny 75 23.7 68 20 80 80 E 15 24 29.64 1004 10 16 0.00 0.00
9:15 am 09:15 Sunny 74 23.6 68 20.2 81 81 E 10 17 29.64 1004 10 16 0.00 0.00
9:35 am 09:35 Sunny 76 24.6 68 20 76 76 ESE 14 22 29.64 1004 10 16 0.00 0.00
9:55 am 09:55 Sunny 77 25 65 18.2 66 66 ESE 13 20 29.65 1004 10 16 0.00 0.00
10:15 am 10:15 Sunny 78 25.8 65 18.4 64 64 ESE 10 17 29.64 1004 10 16 0.00 0.00
10:35 am 10:35 Sunny 79 26.3 65 18.5 62 62 ESE 10 17 29.64 1004 10 16 0.00 0.00
10:55 am 10:55 Sunny 80 26.6 65 18.1 60 60 ESE 8 13 29.63 1003 10 16 0.00 0.00
11:15 am 11:15 Sunny 81 27.4 65 18.3 58 58 ESE 8 13 29.62 1003 10 16 0.00 0.00
11:35 am 11:35 Sunny 83 28.3 65 18.1 54 54 SE 12 19 29.61 1003 10 16 0.00 0.00
11:55 am 11:55 Sunny 84 28.8 64 17.6 51 51 SE 12 19 29.61 1003 10 16 0.00 0.00
12:15 pm 12:15 Sunny 85 29.6 65 18.1 50 50 SE 10 17 29.59 1002 10 16 0.00 0.00
12:35 pm 12:35 Sunny 86 30 65 18.6 50 50 SE 12 19 29.59 1002 10 16 0.00 0.00
12:55 pm 12:55 Sunny 88 31.3 67 19.7 50 50 SE 12 19 29.57 1001 10 16 0.00 0.00
1:15 pm 13:15 Sunny 89 31.8 68 20.2 50 50 SSE 13 20 29.57 1001 10 16 0.00 0.00
1:35 pm 13:35 Sunny 90 32.2 68 20.1 49 49 SSE 13 20 29.55 1001 10 16 0.00 0.00
1:55 pm 13:55 Sunny 91 32.8 68 19.8 46 46 SSE 13 20 29.55 1001 10 16 0.00 0.00
2:15 pm 14:15 Sunny 92 33.1 67 19.5 45 45 SE 12 19 29.54 1000 10 16 0.00 0.00
2:35 pm 14:35 Sunny 91 33 66 18.8 43 43 SE 9 15 29.54 1000 10 16 0.00 0.00
2:55 pm 14:55 Sunny 92 33.1 67 19.3 44 44 SSE 9 15 29.54 1000 10 16 0.00 0.00
3:15 pm 15:15 Sunny 93 33.7 67 19.3 43 43 SSE 9 15 29.53 1000 10 16 0.00 0.00
3:35 pm 15:35 Sunny 93 33.8 66 18.8 41 41 S 10 17 29.51 999 10 16 0.00 0.00
3:55 pm 15:55 Sunny 93 33.8 67 19.2 42 42 SSE 13 20 29.51 999 10 16 0.00 0.00
4:15 pm 16:15 Sunny 93 34 66 19 41 41 SSE 12 19 29.50 999 10 16 0.00 0.00
4:35 pm 16:35 Sunny 94 34.4 66 19 40 40 S 9 15 29.50 999 10 16 0.00 0.00
4:55 pm 16:55 Sunny 95 34.9 66 19 39 39 S 13 20 29.48 998 10 16 0.00 0.00
5:15 pm 17:15 Sunny 95 34.8 67 19.2 40 40 SSE 12 19 29.48 998 10 16 0.00 0.00
5:35 pm 17:35 Sunny 94 34.6 67 19.4 41 41 SSE 13 20 29.48 998 10 16 0.00 0.00
5:55 pm 17:55 Sunny 94 34.6 68 20.1 43 43 S 16 26 29.48 998 10 16 0.00 0.00
6:15 pm 18:15 Sunny 92 33.4 69 20.4 46 46 SSE 12 19 29.47 998 10 16 0.00 0.00
6:35 pm 18:35 Sunny 91 32.6 70 21.3 51 51 SSE 15 24 29.48 998 10 16 0.00 0.00
6:55 pm 18:55 Sunny 91 32.8 70 21.3 51 51 SSE 16 26 29.48 998 10 16 0.00 0.00
7:15 pm 19:15 Sunny 91 32.5 70 21.1 51 51 SSE 13 20 29.48 998 10 16 0.00 0.00
7:35 pm 19:35 Sunny 88 31.1 70 20.9 55 55 SSE 12 19 29.49 999 10 16 0.00 0.00
7:55 pm 19:55 Sunny 87 30.5 69 20.8 56 56 SSE 9 15 29.50 999 10 16 0.00 0.00
8:15 pm 20:15 Sunny 87 30.3 73 22.7 64 64 SSE 9 15 29.50 999 10 16 0.00 0.00
8:35 pm 20:35 Sunny 85 29.5 73 22.5 66 66 SSE 8 13 29.51 999 10 16 0.00 0.00
8:55 pm 20:55 Sunny 84 28.8 72 22 67 67 SE 12 19 29.50 999 10 16 0.00 0.00
9:15 pm 21:15 Clear 83 28.2 72 22.1 70 70 SSE 9 15 29.51 999 10 16 0.00 0.00
9:35 pm 21:35 Clear 82 27.9 72 22.1 71 71 SSE 9 15 29.51 999 10 16 0.00 0.00
9:55 pm 21:55 Clear 81 27.2 72 22 73 73 SE 8 13 29.50 999 10 16 0.00 0.00
10:15 pm 22:15 Clear 81 27 72 22.1 75 75 SE 8 13 29.52 999 10 16 0.00 0.00
10:35 pm 22:35 Clear 80 26.5 72 22.1 77 77 SE 9 15 29.52 1000 10 16 0.00 0.00
10:55 pm 22:55 Clear 80 26.4 72 22 77 77 SE 12 19 29.52 1000 10 16 0.00 0.00
11:15 pm 23:15 Clear 79 26.2 72 22.2 79 79 SE 13 20 29.52 1000 10 16 0.00 0.00
11:35 pm 23:35 Clear 79 26.2 73 22.5 80 80 SSE 15 24 29.53 1000 10 16 0.00 0.00
11:55 pm 23:55 Clear 79 26 73 22.7 82 82 SSE 12 19 29.52 1000 10 16 0.00 0.00

Powered by AerisWeather